FW1247 Weather Reports


time (UTC)temp
C
wind
direction
speed
KPH
gust
KPH
rain 1hr
cm
rain 24hr
cm
rain mn
cm
humidity
%
barometer
mb
20260505124526 14 173 4.8 16.1 0.00 0.00 0.00 68 1007.5
20260505123021 14 98 4.8 17.7 0.00 0.00 0.00 68 1007.6
20260505121518 16 123 3.2 9.7 0.00 0.00 0.00 62 1007.6
20260505120017 17 44 4.8 12.9 0.00 0.00 0.00 49 1007.6
20260505114530 16 293 4.8 14.5 0.00 0.00 0.00 58 1007.6
20260505113015 17 322 6.4 16.1 0.00 0.00 0.00 52 1007.7
20260505111512 17 344 6.4 16.1 0.00 0.00 0.00 54 1007.7
20260505101503 15 311 8.0 22.5 0.00 0.00 0.00 64 1008.0
20260505100059 14 302 9.7 17.7 0.00 0.00 0.00 68 1008.0
20260505094606 15 300 14.5 20.9 0.00 0.00 0.00 68 1008.1
20260505093057 13 299 11.3 22.5 0.00 0.00 0.00 70 1008.2
20260505091600 13 324 11.3 22.5 0.00 0.00 0.00 72 1008.1
20260505090100 14 325 14.5 24.1 0.00 0.00 0.00 70 1008.1
20260505084554 13 288 8.0 17.7 0.00 0.00 0.00 70 1008.1
20260505083054 13 286 11.3 20.9 0.00 0.00 0.00 74 1008.1
20260505081558 12 300 9.7 19.3 0.00 0.00 0.00 74 1008.1
20260505080049 12 318 14.5 22.5 0.00 0.00 0.00 75 1008.2
20260505074603 12 329 11.3 19.3 0.00 0.00 0.00 77 1008.1
20260505073040 11 319 8.0 17.7 0.00 0.00 0.00 79 1008.2
20260505071537 11 328 12.9 19.3 0.00 0.00 0.00 80 1008.2
20260505070033 11 334 8.0 16.1 0.00 0.00 0.00 81 1008.3
20260505064629 10 355 6.4 14.5 0.00 0.00 0.00 81 1008.3
20260505063034 10 281 4.8 16.1 0.00 0.00 0.00 82 1008.2
20260505061530 10 300 8.0 17.7 0.00 0.00 0.00 84 1008.3
20260505060021 10 350 3.2 8.0 0.00 0.00 0.00 86 1008.3
20260505054523 10 338 3.2 6.4 0.00 0.00 0.00 88 1008.3
20260505053013 9 328 0.0 6.4 0.00 0.00 0.00 89 1008.3
20260505051508 8 320 3.2 4.8 0.00 0.00 0.00 90 1008.2
20260505041502 7 331 1.6 4.8 0.00 0.00 0.00 91 1008.1
20260505040101 7 332 0.0 4.8 0.00 0.00 0.00 90 1008.1
20260505034558 7 332 1.6 6.4 0.00 0.00 0.00 90 1008.0
20260505033056 7 327 1.6 4.8 0.00 0.00 0.00 90 1007.9
20260505031601 7 328 3.2 8.0 0.00 0.00 0.00 90 1007.9
20260505030055 7 329 3.2 6.4 0.00 0.00 0.00 90 1008.0
20260505024607 7 336 1.6 6.4 0.00 0.00 0.00 91 1008.1
20260505023051 7 331 3.2 8.0 0.00 0.00 0.00 91 1008.1
20260505021606 7 333 3.2 4.8 0.00 0.00 0.00 91 1008.2
20260505020049 7 333 0.0 6.4 0.00 0.00 0.00 91 1008.3
20260505014549 7 320 4.8 9.7 0.00 0.00 0.00 91 1008.2
20260505013047 7 311 3.2 9.7 0.00 0.00 0.00 91 1008.2
20260505011552 6 286 4.8 6.4 0.00 0.00 0.00 89 1008.3
20260505010044 7 286 1.6 3.2 0.00 0.00 0.00 89 1008.3
20260505004544 7 286 0.0 0.0 0.00 0.00 0.00 89 1008.3
20260505003038 7 287 0.0 0.0 0.00 0.00 0.00 89 1008.3
20260505001537 7 286 0.0 0.0 0.00 0.00 0.00 88 1008.4
20260505000042 7 286 0.0 3.2 0.00 0.00 0.00 88 1008.3
20260504234535 7 286 1.6 4.8 0.00 0.00 0.00 87 1008.2
20260504233041 7 286 1.6 3.2 0.00 0.00 0.00 86 1008.2
20260504231532 8 286 1.6 6.4 0.00 0.00 0.00 85 1008.4
20260504230028 8 276 3.2 9.7 0.00 0.00 0.00 85 1008.6
20260504224525 8 267 0.0 3.2 0.00 0.00 0.00 86 1008.8
20260504223029 8 267 3.2 4.8 0.00 0.00 0.00 86 1008.8
20260504221530 8 271 1.6 4.8 0.00 0.00 0.00 87 1008.9
20260504220022 8 271 1.6 4.8 0.00 0.00 0.00 87 1008.8
20260504214517 9 272 0.0 1.6 0.00 0.00 0.00 87 1008.9
20260504213016 9 272 0.0 1.6 0.00 0.00 0.00 86 1009.0
20260504211513 10 272 0.0 3.2 0.00 0.00 0.00 85 1009.0
20260504210011 10 272 0.0 0.0 0.00 0.00 0.00 84 1008.9
20260504204515 10 272 0.0 1.6 0.00 0.00 0.00 84 1008.8
20260504203007 11 272 0.0 1.6 0.00 0.00 0.00 81 1008.8
20260504201505 11 272 0.0 3.2 0.00 0.00 0.00 80 1008.8
20260504200002 11 272 1.6 4.8 0.00 0.00 0.00 79 1008.8
20260504194503 11 272 3.2 4.8 0.00 0.00 0.00 76 1008.7
20260504193101 12 265 3.2 6.4 0.00 0.00 0.00 75 1008.6
20260504191558 12 266 0.0 4.8 0.00 0.00 0.00 74 1008.4
20260504190058 12 267 1.6 4.8 0.00 0.00 0.00 72 1008.5
20260504184600 13 279 4.8 11.3 0.00 0.00 0.00 71 1008.5
20260504183104 13 275 6.4 14.5 0.00 0.00 0.00 69 1008.3
20260504181556 14 276 8.0 14.5 0.00 0.00 0.00 68 1008.3
20260504180055 15 290 9.7 16.1 0.00 0.00 0.00 67 1008.2
20260504174554 15 277 4.8 19.3 0.00 0.00 0.00 68 1008.3
20260504173058 15 275 4.8 17.7 0.00 0.00 0.00 68 1008.2
20260504171557 15 278 11.3 20.9 0.00 0.00 0.00 66 1008.2